Vorticity
nan nan nan nan nan nan nan nan nan nan nan nan nan nan nan nan nan nan nan nan nan nan nan nan nan nan nan nan nan nan nan nan nan nan nan nan nan nan nan nan nan nan nan nan nan
nan 7 7 7 7 7 7 7 7 7 7 8 7 8 8 10 13 9 15 12 11 5 2 3 5 5 5 9 6 9 6 6 15 4 9 5 6 10 8 5 6 7 10 11 nan
nan 8 7 7 7 7 7 7 7 7 7 8 8 8 9 9 17 19 11 10 6 3 2 0 2 6 8 7 7 4 6 9 4 8 9 6 10 3 0 10 16 11 11 7 nan
nan 7 7 7 7 7 8 7 7 7 7 7 8 8 13 13 6 18 14 11 9 4 6 6 5 6 3 7 3 5 7 7 7 10 10 3 4 5 8 8 11 16 11 7 nan
nan 7 7 7 7 8 8 7 7 7 8 8 9 11 14 9 11 9 7 9 9 6 8 6 5 5 6 6 3 8 7 9 6 8 9 9 8 5 11 10 12 8 9 9 nan
nan 7 7 7 7 8 8 8 7 8 10 10 9 11 11 4 11 9 10 7 5 6 5 3 1 2 12 5 10 4 6 9 7 9 7 7 9 9 12 10 9 6 7 12 nan
nan 8 8 8 8 7 7 8 9 12 13 12 11 7 7 15 5 11 13 10 7 6 3 3 6 3 8 9 4 3 8 9 6 4 9 4 15 18 10 9 7 5 7 9 nan
nan 7 8 8 8 8 8 9 9 17 19 14 9 5 5 13 11 12 10 10 10 6 4 9 6 5 1 11 7 10 6 10 9 8 8 12 11 10 10 8 7 6 8 7 nan
nan 7 8 9 9 9 9 8 17 20 16 11 6 7 8 5 14 11 7 9 9 8 5 5 11 10 8 5 10 10 7 10 4 6 3 5 5 12 9 9 6 9 7 6 nan
nan 8 8 9 10 10 10 15 19 18 8 1 8 13 17 12 14 8 8 10 10 6 6 5 8 10 6 6 3 8 13 -1 2 10 3 6 6 9 12 6 8 9 6 7 nan
nan 9 9 9 10 11 18 18 14 10 4 3 5 6 10 15 14 9 9 8 6 6 7 7 3 6 8 1 -2 5 5 6 8 4 5 7 7 10 15 11 7 6 9 7 nan
nan 9 10 10 10 16 16 0 3 9 20 18 0 2 9 11 4 11 6 2 8 8 7 2 8 8 4 7 10 5 7 6 6 4 2 0 8 15 17 11 10 9 7 8 nan
nan 10 10 9 17 23 11 4 -2 12 20 21 11 12 7 5 9 11 4 4 8 7 5 3 10 13 3 9 8 4 6 5 3 5 13 16 14 16 9 9 12 10 8 10 nan
nan 10 10 17 18 13 16 9 2 7 17 17 13 18 9 5 20 11 7 5 3 11 8 7 5 6 14 8 6 7 8 6 5 4 8 7 10 18 18 9 5 10 11 9 nan
nan 12 17 12 12 7 8 11 9 10 16 11 7 13 14 3 15 20 9 -1 5 8 9 8 13 7 9 7 8 8 6 8 11 8 7 1 6 10 11 12 16 13 11 12 nan
nan 16 21 15 8 9 6 9 11 6 16 10 7 11 10 7 -2 14 9 5 4 8 7 6 5 11 11 11 7 9 11 10 11 12 11 11 8 11 5 9 9 13 18 11 nan
nan 23 14 2 15 15 10 8 6 11 14 13 9 12 9 12 3 6 12 8 3 8 8 14 7 6 7 10 14 8 5 10 12 7 9 20 8 5 12 14 5 9 10 11 nan
nan 29 13 7 10 10 9 6 3 14 10 6 18 10 11 10 8 8 6 7 6 -3 7 20 18 17 8 5 7 11 8 3 4 3 7 13 8 6 8 6 9 13 11 10 nan
nan 23 12 14 8 9 9 2 2 3 10 14 7 9 11 5 10 8 8 9 9 6 4 6 7 18 19 10 6 8 6 2 5 8 7 -1 8 11 11 7 16 17 13 9 nan
nan 11 16 11 8 7 7 4 7 8 9 11 9 12 10 7 7 4 10 8 14 11 2 0 12 8 10 10 9 9 9 14 7 6 7 8 11 25 14 3 10 16 16 8 nan
nan 10 12 8 5 9 7 7 14 7 10 8 10 6 6 15 14 6 5 4 19 11 8 3 5 9 9 8 6 8 6 4 6 12 14 10 4 5 12 9 7 11 9 9 nan
nan 13 10 8 8 8 3 6 9 12 10 7 7 7 9 14 14 12 4 24 13 6 16 9 8 8 3 9 8 -2 10 12 9 6 -0 5 5 5 14 6 6 12 14 15 nan
nan 15 12 7 8 11 7 7 2 16 7 10 9 10 11 9 9 10 10 18 13 11 14 15 8 6 12 12 14 11 10 1 8 12 3 7 11 13 5 3 4 7 16 10 nan
nan 17 11 7 8 6 11 13 13 6 7 10 7 10 14 12 7 8 13 -0 9 6 5 16 9 7 8 0 -0 15 16 9 9 9 12 9 2 1 3 5 8 15 10 14 nan
nan 7 10 11 8 7 12 8 13 11 11 1 12 8 9 13 14 12 11 3 5 6 6 6 6 5 4 5 -0 8 8 5 6 7 5 3 7 8 10 13 8 9 7 14 nan
nan 6 8 13 7 12 14 12 11 14 6 11 8 8 12 11 10 9 21 17 8 10 3 6 8 7 10 10 8 9 6 8 10 6 6 6 8 4 4 7 9 8 10 14 nan
nan nan nan nan nan nan nan nan nan nan nan nan nan nan nan nan nan nan nan nan nan nan nan nan nan nan nan nan nan nan nan nan nan nan nan nan nan nan nan nan nan nan nan nan nan
CAPE
1 1 1 1 1 1 1 1 1 1 1 1 0 0 0 0 0 0 0 0 0 0 349 0 0 0 0 36 0 42 695 468 256 205 217 234 237 149 120 176 172 142 235 452 722
1 2 2 1 1 1 1 1 1 1 1 1 1 0 0 0 0 0 0 0 57 312 0 0 0 0 14 0 0 34 377 243 204 433 283 436 294 305 213 168 212 419 209 512 534
2 1 1 2 1 1 1 1 1 2 1 1 0 0 0 0 0 0 0 0 82 293 0 0 0 0 0 2 0 1 182 236 380 406 492 500 393 322 298 141 213 427 575 495 459
1 1 2 2 1 1 1 1 2 1 1 1 0 0 0 0 0 0 0 19 123 4 0 0 0 0 2 9 0 9 165 324 602 701 727 577 578 354 428 465 173 451 576 384 364
2 3 2 1 2 2 1 2 2 1 1 2 0 0 0 0 0 0 2 145 0 0 0 0 0 0 0 0 0 0 450 498 689 852 746 826 774 669 510 449 205 412 393 404 473
3 3 2 2 2 2 2 1 2 2 1 2 0 0 0 0 0 0 0 0 0 0 0 0 0 0 0 0 0 0 574 633 865 864 872 846 856 673 605 463 427 438 205 428 506
3 3 2 3 3 3 2 2 1 1 2 2 0 0 0 0 0 0 0 0 0 0 0 0 0 0 0 0 0 1 176 311 809 758 706 684 875 888 770 579 563 489 78 294 351
2 2 2 3 3 3 1 1 0 1 1 0 0 0 0 0 0 0 0 0 0 0 0 0 0 0 0 0 0 0 2 697 514 616 1045 839 1235 909 853 693 774 504 39 147 261
3 2 2 3 4 3 2 0 0 1 0 0 0 0 0 0 0 0 0 0 0 0 0 0 0 0 0 0 0 0 49 143 531 479 567 491 259 892 657 793 927 623 111 67 174
3 4 5 4 5 2 0 0 0 0 0 0 0 0 0 0 0 0 0 0 0 0 0 0 0 0 0 0 0 3 0 16 99 333 33 0 0 0 851 871 937 851 454 94 145
3 4 5 4 3 1 0 0 0 0 0 0 0 0 0 0 0 0 0 0 0 0 0 0 0 0 0 0 0 0 0 0 0 0 0 0 0 0 32 995 930 1022 867 271 126
3 4 5 4 2 0 0 0 0 0 0 0 0 0 0 0 0 0 0 0 0 0 0 0 0 0 0 0 0 0 0 0 0 0 0 0 0 0 23 559 953 1020 1063 861 266
3 4 4 2 1 1 0 0 0 0 0 0 0 0 0 0 0 0 0 0 0 0 0 0 0 0 0 0 0 0 0 0 0 0 0 0 0 2 129 340 729 961 959 953 714
3 5 4 0 0 0 0 0 0 0 0 0 0 0 0 0 0 0 0 0 0 0 0 0 0 0 0 0 0 0 0 0 0 0 0 0 0 0 52 346 517 808 924 881 861
3 4 1 1 0 0 0 0 0 0 0 0 0 0 0 0 0 0 0 0 0 0 0 0 0 0 0 0 0 0 0 0 0 0 0 0 0 1 9 4 13 586 618 540 691
1 1 2 0 0 0 0 0 0 0 0 0 0 0 0 0 0 0 0 0 0 0 0 0 0 0 0 0 0 0 0 0 0 0 0 0 2 3 14 10 1 0 240 357 264
0 0 1 0 0 0 0 0 0 0 0 0 0 0 0 0 0 0 0 0 0 0 0 0 0 0 0 0 0 0 0 0 0 0 0 1 1 11 4 0 0 0 0 2 66
0 0 0 0 0 0 0 0 0 0 0 0 0 0 0 0 0 0 0 0 0 0 0 0 0 0 0 0 0 0 0 0 0 0 60 8 0 0 0 0 0 0 0 0 0
0 0 0 0 0 0 0 0 0 0 0 0 0 0 0 0 0 0 0 0 0 0 0 0 0 0 0 0 0 0 0 0 0 0 0 1 0 0 0 0 0 0 0 0 0
0 0 0 0 0 0 0 0 0 0 0 0 0 0 0 0 0 0 0 0 0 0 0 0 0 0 0 0 0 0 0 0 0 0 0 5 7 18 5 0 0 0 0 1 0
0 0 0 0 0 0 0 0 0 0 0 0 0 0 0 0 0 0 0 0 0 0 0 0 0 0 0 0 0 0 0 0 0 0 4 23 61 8 2 0 0 0 0 0 0
0 0 0 0 0 0 0 0 0 0 0 0 0 0 0 0 0 0 0 0 0 0 0 0 0 0 0 0 0 0 1 0 0 0 0 0 2 0 6 1 0 0 0 0 22
0 0 0 0 0 0 0 0 0 0 0 0 0 0 0 0 0 0 0 0 0 0 0 0 0 0 1 3 10 0 0 0 5 6 17 24 75 37 22 18 10 8 0 0 166
0 0 0 0 0 0 0 0 0 0 0 0 0 0 0 0 0 0 0 0 0 0 0 0 0 1 10 40 29 6 9 0 0 17 30 33 55 47 25 31 28 36 13 35 609
0 0 0 0 0 0 0 0 0 0 0 0 0 0 0 0 0 0 0 0 0 0 0 0 0 0 1 4 0 6 19 15 8 7 15 14 34 62 79 69 37 42 23 336 1081
0 0 0 0 0 0 0 0 0 0 0 0 0 0 0 0 0 4 5 8 6 12 0 0 2 0 9 16 12 2 12 14 15 13 2 0 6 5 23 29 46 68 94 560 889
0 0 0 0 0 0 0 0 0 0 0 0 0 0 0 0 0 0 0 0 0 12 21 22 15 38 27 25 43 43 8 6 13 23 29 29 23 37 30 41 74 202 435 667 1417